Location: Gnatowice
(50.1996°N, 20.1818°E)
Time: 05:20:37
(UTC+00:00)

Daily predictions for brighter satellites

Satellite Brightness Start Highest point End
(mag) Time Altitude Azimuth Time Altitude Azimuth Time Altitude Azimuth
Cosmos 1825 4.3 00:04:51 10° WSW 00:06:47 15° WNW 00:08:48 10° NNW
MOZ.5/SAFIR/RUBIN 5/SL-8 3.7 00:05:16 17° SSE 00:08:55 85° WSW 00:13:34 10° NNW
Meteor 1-11 4.3 00:07:24 19° S 00:11:38 89° ESE 00:17:29 10° NNE
NPP 4.2 00:09:58 10° NNE 00:15:15 53° E 00:19:43 14° S
Cosmos 2297 Rocket 3.9 00:10:39 10° W 00:15:21 26° NW 00:20:06 10° NNE
Cosmos 923 Rocket 4.1 00:10:54 10° NNW 00:16:05 58° WSW 00:20:13 16° S
NOSS 3-2 (A) 3.2 00:12:23 18° SW 00:16:28 88° NW 00:22:52 10° NE
ADEOS II 3.6 00:13:11 10° NE 00:17:44 29° E 00:22:15 10° SSE
Cosmos 2219 3.5 00:14:01 17° SW 00:18:26 60° NW 00:24:00 10° NNE
Aureole 1 Rocket 3.4 00:17:04 20° SW 00:19:28 51° WNW 00:23:59 10° NNE
NOSS 3-2 (C) 3.6 00:19:19 19° SSW 00:23:03 54° ESE 00:29:06 10° NE
Cosmos 1937 Rocket 3.5 00:19:39 19° SSW 00:23:28 88° ESE 00:28:45 10° NNE
Cosmos 2228 3.0 00:19:21 10° N 00:23:42 89° ENE 00:27:21 14° S
Cosmos 1544 Rocket 3.6 00:20:34 10° NNW 00:25:00 68° W 00:28:21 17° S
SL-16 R/B 3.6 00:19:40 10° SE 00:25:34 45° ENE 00:31:27 10° N
SL-8 Rocket 4.0 00:23:21 17° SSW 00:28:08 73° W 00:34:22 10° N
Cosmos 1898 Rocket 3.7 00:24:22 18° SW 00:28:13 66° WNW 00:33:23 10° NNE
ALOS 4.3 00:27:19 10° NE 00:30:48 21° E 00:34:16 10° SE
Cosmos 1606 3.0 00:27:54 10° NNW 00:31:20 44° W 00:33:25 20° SSW
H-2A R/B 4.4 00:30:04 10° NNW 00:32:13 14° NW 00:34:21 10° W
H-2A R/B 3.7 00:28:29 10° NNE 00:32:27 62° ESE 00:35:34 16° S
Resurs 1-4 Rocket 2.5 00:27:57 10° NNE 00:33:11 58° E 00:37:56 12° S
Cosmos 1975 Rocket 4.1 00:37:42 15° SW 00:40:42 33° WNW 00:44:43 10° N
Iridium 921 4.4 00:38:56 19° SSW 00:41:17 69° W 00:44:44 10° N
Cosmos 1727 Rocket 4.1 00:38:52 10° N 00:45:15 88° W 00:51:37 10° S
Cosmos 2263 Rocket 2.7 00:42:06 13° SW 00:46:56 52° NW 00:52:23 10° NNE
BlueWalker 3 2.6 00:47:08 10° WNW 00:50:50 55° N 00:54:31 10° E
Orbus 7S? 3.4 00:48:17 10° WNW 00:50:56 39° SW 00:55:03 10° SSE
Cosmos 921 Rocket 2.9 00:53:16 10° NNW 00:57:32 88° ENE 01:01:43 10° SSE
Cosmos 1680 Rocket 4.2 00:53:09 10° NW 00:57:51 36° WSW 01:02:17 11° SSW
Meteor 2-13 Rocket 4.5 00:53:36 10° NNW 00:59:39 70° W 01:05:43 10° S
Cosmos 1606 Rocket 3.7 00:56:01 10° N 01:00:30 81° E 01:04:55 10° SSE
USA 234 3.9 00:56:37 10° E 01:03:04 63° NNE 01:09:31 10° WNW
Cosmos 1818 4.5 00:59:40 10° WNW 01:04:19 29° WSW 01:08:56 10° S
Meteor 1-27 4.5 01:00:13 10° NNW 01:05:57 59° W 01:11:36 10° S
Cosmos 1844 Rocket 3.1 01:00:50 11° S 01:06:12 58° ESE 01:11:40 10° NE
Cosmos 1536 Rocket 3.9 01:06:18 13° SSW 01:10:13 56° WNW 01:14:35 10° N
Cosmos 1461 3.4 01:06:45 11° WSW 01:10:28 49° NW 01:14:15 10° NNE
BREEZE-M R/B 4.4 01:03:02 10° WNW 01:12:08 74° SSW 01:17:51 10° ESE
Cosmos 1726 Rocket 3.6 01:11:13 10° N 01:15:42 86° ENE 01:20:06 10° S
Cosmos 2058 4.4 01:13:00 10° SSE 01:16:39 33° E 01:20:20 10° NNE
Cosmos 1238 Rocket 4.3 01:14:30 10° N 01:17:41 31° ENE 01:20:31 10° SE
CENTAUR R/B 3.8 01:13:50 10° W 01:19:43 41° NNW 01:26:58 10° NE
IDEFIX/ARIANE 42P 3.1 01:15:34 10° N 01:20:37 48° WNW 01:25:36 10° SW
Meteor 1-28 Rocket 3.0 01:19:58 10° S 01:23:29 68° WSW 01:27:03 10° NNW
SL-16 R/B 4.2 01:23:00 10° W 01:23:45 10° W 01:24:29 10° W
USA 238 DEB 3.7 01:23:06 10° SW 01:29:20 80° SE 01:36:11 10° NE
USA 238 3.7 01:23:08 10° SW 01:29:22 80° SE 01:36:14 10° NE
CZ-2C R/B 3.3 01:24:02 10° N 01:29:27 64° WNW 01:34:33 10° SSW
Cosmos 1603 4.1 01:24:16 10° NW 01:29:42 43° WSW 01:35:03 10° S
MSX 4.3 01:24:32 10° N 01:30:04 51° WNW 01:35:34 10° SW
Envisat 4.2 01:27:10 10° NNE 01:31:57 39° E 01:36:40 10° SSE
Cosmos 1821 Rocket 4.4 01:26:42 10° SSW 01:32:35 50° WNW 01:38:35 10° N
Cosmos 1607 4.0 01:26:32 10° NW 01:32:52 62° WSW 01:39:03 10° SSE
ASTEX 1 3.4 01:28:07 10° S 01:32:57 66° W 01:37:49 10° N
Cosmos 1048 Rocket 4.1 01:28:53 10° NNW 01:34:00 59° WSW 01:39:11 10° S
CZ-2C R/B 4.2 01:30:24 10° NE 01:34:13 25° E 01:37:59 10° SSE
CZ-2D R/B 2.6 01:30:58 10° N 01:36:08 50° WNW 01:41:13 10° SW
CZ-2C R/B 3.5 01:32:43 10° SSW 01:37:22 31° W 01:42:08 10° NNW
Cosmos 1943 4.3 01:33:59 10° NW 01:38:25 24° WSW 01:42:50 10° SSW
Cosmos 1437 Rocket 3.5 01:35:46 10° SW 01:39:19 36° WNW 01:42:51 10° N
Cosmos 2227 Rocket 4.5 01:36:44 10° WNW 01:40:10 16° NNW 01:43:36 10° N
FENGYUN 3A 3.8 01:36:34 10° N 01:41:54 65° WNW 01:47:14 10° SSW
SAR-Lupe-1 4.4 01:39:32 10° NNE 01:43:06 64° ESE 01:46:39 10° S
Cosmos 1125 Rocket 3.8 01:41:43 10° SSW 01:46:57 69° ESE 01:52:14 10° NNE
